SCP
-0 0 0 0 0 0 0 -0 -0 -0 -0 -0 -0 -0 -0 -0 -0 0 -0 -0 0 0 0 0 0 0 0 0 0 -0 -0 -0 0 -0 -0 0 0 0 0 -0 -0 -0 -0 -0 0 -0 -0 -0 -0
0 0 -0 0 0 -0 0 -0 -0 0 0 -0 0 -0 0 0 0 0 0 0 0 0 0 0 0 0 0 0 0 0 0 -0 -0 0 0 0 0 0 -0 -0 0 0 0 -0 0 0 0 0 0
0 0 -0 0 0 -0 0 0 0 -0 -0 0 0 0 -0 -0 0 0 -0 0 0 0 0 0 0 0 0 0 0 0 0 0 0 0 0 0 0 0 -0 0 0 0 0 0 0 0 0 0 0
-0 -0 -0 0 0 -0 -0 -0 -0 -0 0 0 -0 0 -0 0 0 0 0 0 0 0 0 0 0 0 0 0 0 0 0 0 0 0 0 0 0 0 -0 -0 0 0 0 0 0 0 0 0 -0
-0 0 0 0 0 -0 0 -0 -0 0 0 0 0 0 -0 0 0 -0 0 0 0 0 0 0 0 0 0 0 0 0 0 0 0 0 0 0 -0 0 0 0 0 0 0 0 0 0 -0 0 0
0 0 0 0 0 0 0 -0 0 -0 0 0 -0 -0 -0 0 -0 -0 0 0 0 0 0 0 0 0 0 0 0 -0 0 -0 0 0 0 0 0 0 0 0 0 0 0 0 0 0 0 0 0
0 0 0 0 0 0 -0 0 -0 -0 0 -0 -0 -0 0 -0 -0 0 0 0 0 -0 -0 -0 -0 0 0 0 0 0 0 0 0 0 0 0 0 0 0 0 0 0 0 0 0 0 0 0 0
0 0 -0 -0 0 0 0 -0 0 -0 0 -0 -0 -0 -0 -0 0 -0 -0 0 0 -0 -0 -0 -0 -0 -0 -0 0 0 0 0 0 0 0 0 0 0 0 0 0 0 0 0 0 0 0 0 0
0 0 0 -0 0 -0 -0 -0 0 0 -0 0 0 0 -0 -0 -0 -0 -0 0 0 -0 -0 -0 -0 -0 -0 -0 0 0 0 0 0 0 0 0 0 0 0 0 0 0 0 0 0 0 0 0 0
0 0 -0 0 0 -0 -0 -0 -0 0 -0 0 0 -0 -0 -0 -0 -0 -0 -0 0 0 -0 -0 -0 -0 -0 -0 0 0 0 0 0 0 0 0 0 0 0 0 0 0 0 0 0 0 0 0 0
0 -0 0 -0 0 0 -0 -0 0 -0 0 0 -0 -0 -0 -0 -0 -0 -0 -0 0 0 -0 -0 -0 -0 -0 -0 0 0 0 0 0 0 0 0 0 0 0 -0 -0 -0 0 0 0 0 0 -0 0
0 0 0 -0 0 0 0 0 0 -0 -0 -0 -0 -0 -0 -0 -0 -0 -0 -0 0 0 0 -0 -0 -0 -0 -0 0 0 -0 -0 0 -0 0 0 0 0 -0 -0 -0 0 0 0 0 0 0 0 -0
-0 -0 0 0 0 0 0 0 0 -0 -0 -0 -0 -0 -0 -0 -0 -0 -0 -0 0 0 0 0 -0 -0 -0 -0 0 0 -0 -0 -0 0 0 0 0 0 0 0 -0 0 0 0 0 0 0 0 0
0 0 0 0 0 0 0 0 0 -0 -0 -0 -0 -0 -0 -0 -0 -0 -0 -0 -0 0 0 0 -0 -0 -0 -0 -0 -0 -0 -0 -0 0 0 0 0 0 0 0 0 0 0 0 -0 0 0 0 0
-0 0 0 0 0 0 0 0 0 -0 -0 -0 -0 -0 -0 -0 -0 -0 -0 -0 -0 0 0 0 -0 -0 -0 -0 -0 -0 -0 -0 0 0 0 0 0 0 0 0 0 0 0 0 0 -0 -0 0 0
-0 0 0 -0 0 0 0 -0 -0 -0 -0 -0 -0 -0 -0 -0 -0 -0 -0 -0 -0 0 -0 -0 -0 -0 -0 -0 -0 -0 -0 0 0 0 0 0 0 0 0 0 0 0 0 -0 -0 0 0 0 0
0 0 0 0 0 0 0 0 -0 -0 -0 -0 -0 -0 -0 -0 -0 -0 -0 -0 -0 0 -0 -0 -0 -0 -0 -0 -0 -0 0 0 0 0 0 0 0 0 0 0 0 0 0 0 0 0 0 0 0
0 0 0 0 0 0 0 0 0 -0 -0 -0 -0 -0 -0 -0 -0 -0 -0 -0 0 0 0 -0 -0 -0 -0 -0 -0 -0 0 -0 -0 0 0 0 0 0 0 -0 0 0 0 0 0 -0 -0 -0 0
0 0 0 0 0 0 0 0 0 0 0 -0 -0 -0 -0 -0 -0 -0 -0 0 0 0 0 -0 -0 -0 -0 -0 -0 -0 0 0 0 0 0 0 0 0 0 -0 -0 0 0 0 0 0 -0 -0 -0
0 0 0 0 0 0 0 0 0 0 -0 -0 -0 -0 -0 -0 -0 -0 -0 0 0 0 0 -0 -0 -0 0 0 0 0 0 0 0 0 0 0 0 0 0 0 0 0 0 0 0 0 -0 -0 -0
0 0 0 0 0 0 0 0 0 0 0 0 -0 -0 -0 -0 -0 -0 -0 -0 0 0 0 0 0 0 0 0 0 0 0 0 0 0 0 -0 0 -0 0 0 0 0 0 0 0 0 -0 -0 -0
0 0 0 0 0 0 0 0 0 0 0 0 -0 -0 -0 -0 -0 0 0 -0 -0 0 0 0 0 0 0 0 0 0 0 0 -0 0 0 -0 -0 -0 -0 0 0 0 0 0 0 0 -0 -0 -0
0 0 0 0 0 0 0 0 0 0 0 0 -0 -0 -0 -0 -0 -0 -0 -0 -0 0 0 0 0 0 0 0 0 0 0 -0 0 0 -0 -0 -0 0 -0 -0 0 -0 0 -0 0 0 0 -0 -0
0 0 0 0 0 0 0 0 0 0 -0 -0 -0 -0 -0 -0 -0 -0 -0 -0 0 0 0 0 0 0 0 0 0 0 0 -0 -0 -0 -0 -0 -0 0 -0 -0 -0 -0 -0 -0 -0 0 -0 -0 -0
0 0 0 0 0 0 -0 0 -0 -0 0 -0 -0 -0 -0 -0 -0 -0 -0 -0 -0 -0 0 0 0 0 0 0 0 0 0 0 0 -0 -0 -0 -0 -0 0 -0 -0 -0 -0 -0 -0 -0 0 0 0
0 0 0 0 0 0 -0 0 0 -0 -0 0 0 -0 0 -0 -0 -0 -0 -0 -0 0 0 0 -0 0 0 0 0 0 0 0 0 0 -0 -0 -0 0 0 -0 -0 -0 -0 0 -0 -0 -0 0 0
0 0 0 0 0 0 0 0 0 0 0 0 0 0 0 -0 -0 -0 -0 -0 -0 0 0 0 -0 0 0 0 0 0 0 0 0 0 0 -0 -0 -0 -0 -0 -0 -0 -0 -0 0 0 -0 -0 0
0 0 0 0 0 0 0 0 0 0 -0 0 0 0 0 0 0 0 -0 -0 0 0 0 0 0 0 0 0 0 0 0 0 0 0 0 0 -0 -0 -0 -0 0 0 -0 0 -0 0 0 0 -0
0 0 0 0 0 0 0 0 0 0 -0 0 0 0 0 -0 0 0 0 -0 0 0 0 0 0 0 0 0 0 0 0 0 0 0 0 0 -0 -0 -0 -0 0 0 0 0 0 0 0 0 0
0 0 0 0 0 0 0 -0 0 0 0 0 0 0 0 -0 0 0 0 -0 0 0 0 0 0 0 0 0 0 0 0 0 0 0 0 -0 -0 -0 -0 0 0 0 0 0 0 -0 0 -0 -0
Wind_Speed_500mb
22 20 18 8 5 4 6 6 3 7 8 17 46 14 13 11 5 5 54 65 63 63 61 56 51 48 45 40 38 37 37 35 34 32 32 32 30 28 28 27 25 25 29 24 21 21 23 26 26
25 21 14 6 2 3 6 2 5 10 19 43 23 36 11 6 10 45 74 68 63 64 62 56 49 46 43 40 38 37 35 34 32 32 32 30 30 30 30 29 26 26 26 26 26 24 28 30 31
22 7 5 3 3 2 6 8 10 8 52 31 13 23 9 8 25 84 74 72 66 64 61 58 50 44 41 38 36 33 34 34 31 34 30 30 31 29 28 28 29 30 29 28 28 26 31 30 29
19 9 6 2 1 4 4 12 10 29 28 14 34 16 11 6 76 51 77 70 66 64 60 57 48 41 39 37 34 32 33 32 34 31 29 30 30 29 28 29 29 29 28 24 23 25 28 30 31
19 4 1 3 5 5 3 6 6 19 12 12 5 10 15 58 43 77 71 69 68 65 60 54 46 39 37 36 33 32 31 33 33 33 28 30 32 31 31 32 32 30 28 26 25 24 24 26 28
5 3 2 3 6 5 6 6 22 3 10 18 22 29 14 25 69 70 69 69 66 63 59 52 44 39 36 35 32 29 31 31 31 31 30 28 31 33 35 35 34 32 29 26 22 20 23 22 23
5 5 4 6 6 8 5 5 10 10 16 13 47 11 29 60 73 68 68 66 64 59 57 51 46 40 36 34 32 30 29 30 30 30 30 29 32 34 34 33 32 29 27 26 27 22 23 24 22
5 6 5 7 3 3 7 4 13 14 5 41 38 15 35 84 71 65 63 63 59 56 56 52 47 41 37 34 31 30 28 29 30 30 29 29 31 32 32 31 30 27 29 27 29 28 23 25 21
7 2 6 6 9 5 11 7 15 10 35 7 20 29 81 83 72 68 62 61 57 54 53 51 46 41 37 34 31 31 28 29 32 30 28 27 27 30 30 28 28 26 25 27 28 28 27 23 19
8 5 15 7 8 4 9 9 24 13 22 13 29 62 96 77 75 78 70 66 62 58 55 50 46 41 38 34 32 32 32 32 33 28 26 25 23 24 25 25 26 24 23 24 24 23 23 21 13
13 11 10 5 17 27 7 8 16 33 5 23 76 99 94 80 77 78 72 69 68 61 55 51 46 41 37 34 33 32 31 32 25 28 25 21 16 20 22 23 24 25 23 24 21 17 18 15 13
8 26 36 6 3 19 14 20 14 36 14 41 66 119 109 93 85 82 75 70 68 63 56 51 46 42 38 35 33 32 29 26 25 22 15 14 13 16 21 23 23 19 18 17 21 18 14 9 16
27 24 27 30 21 17 39 17 12 37 16 40 82 87 87 89 83 80 73 66 65 65 58 53 47 42 40 37 34 33 27 28 30 22 24 15 16 13 14 19 14 17 16 22 22 17 12 10 10
14 38 47 33 37 22 23 8 24 21 50 69 88 85 77 80 87 77 75 72 71 66 59 53 50 44 43 40 39 34 30 29 24 18 16 12 11 12 17 18 16 13 18 11 13 11 12 14 21
34 21 17 18 24 16 24 7 9 51 65 74 80 84 71 75 80 87 81 78 73 68 59 56 53 49 48 40 41 37 29 25 24 17 16 13 8 15 11 13 17 15 12 7 12 12 5 9 12
8 9 7 6 15 13 29 13 23 59 66 66 71 77 77 80 86 85 78 74 73 68 64 56 58 54 54 43 43 36 27 27 27 25 17 12 4 9 4 14 18 12 11 7 7 6 1 12 12
5 8 13 14 22 7 13 6 28 56 54 58 69 71 71 73 80 85 84 78 76 71 65 61 64 59 59 48 48 38 31 30 32 26 22 12 5 4 6 9 16 10 13 13 8 7 5 13 20
12 9 9 11 11 13 13 12 33 61 61 61 66 70 74 71 78 84 82 83 77 72 67 64 68 63 56 53 49 41 33 35 36 30 24 17 10 4 11 11 10 15 13 11 12 9 6 11 18
9 8 11 7 16 13 29 14 37 55 50 57 63 68 75 80 83 80 83 77 81 78 75 72 71 68 63 59 57 56 49 42 38 33 28 22 19 13 9 13 11 15 9 16 13 11 12 11 17
14 10 12 10 12 19 23 29 31 37 54 67 65 65 75 78 81 87 88 86 84 86 85 79 78 74 72 66 62 59 59 56 47 40 34 31 26 21 15 15 18 15 15 12 11 12 21 16 13
28 32 20 16 5 20 15 12 16 27 33 45 61 73 70 82 85 93 93 102 94 93 90 88 86 80 83 76 70 69 61 63 60 56 46 37 31 27 21 15 20 19 21 15 14 13 19 15 17
28 31 27 27 10 8 16 10 17 26 36 34 62 71 70 77 77 80 88 98 102 105 99 93 86 85 86 86 76 72 67 75 74 66 55 45 37 32 27 22 20 25 25 20 14 18 20 17 25
27 15 20 20 7 10 13 8 14 34 37 44 53 70 75 82 84 93 98 106 100 105 106 102 96 89 86 93 84 73 69 68 77 72 61 54 45 39 33 27 23 27 29 24 18 19 26 23 27
10 10 9 2 7 19 26 20 11 25 51 49 55 75 73 77 84 94 102 92 102 102 112 110 104 99 90 95 90 81 71 65 66 68 67 57 53 52 43 33 30 31 28 26 25 21 24 28 26
24 17 6 8 12 23 14 20 26 35 49 57 61 87 89 87 82 86 93 103 108 108 114 115 111 105 97 100 97 88 76 67 63 61 62 60 54 51 46 40 36 33 31 27 25 27 25 28 26
23 23 12 17 9 12 14 15 13 30 60 83 89 88 63 68 76 84 102 106 107 108 115 120 116 109 105 102 102 93 82 71 65 63 62 60 59 50 41 41 39 38 32 30 31 32 31 31 30
21 34 23 9 6 5 12 10 11 14 28 30 57 50 72 83 82 94 89 93 104 106 114 121 119 110 107 105 107 98 87 78 71 68 60 62 59 50 45 43 42 40 38 34 34 38 31 35 34
39 18 15 11 16 15 9 11 15 21 30 26 31 55 68 84 84 80 90 94 97 109 113 116 118 109 107 107 110 101 87 78 74 72 67 63 59 55 53 50 44 42 39 34 38 36 36 35 38
23 22 10 12 9 22 3 15 15 23 31 27 32 62 77 80 96 99 94 96 97 103 109 116 117 114 112 108 109 103 91 82 77 76 72 66 61 60 57 51 48 45 43 43 42 43 43 43 39
22 22 15 22 24 5 7 29 9 20 25 26 41 60 73 90 98 97 99 102 99 102 105 114 114 114 112 107 108 103 93 87 81 78 74 70 68 64 60 59 55 53 50 43 44 51 52 53 51
Wind_Direction_500mb
155 163 163 187 226 231 250 151 325 121 115 140 139 154 155 63 143 181 146 155 155 150 147 148 144 140 137 134 128 125 124 125 126 123 128 128 129 131 130 128 121 120 120 110 104 100 96 102 108
160 160 179 244 263 314 332 333 309 160 144 142 104 112 81 83 112 138 147 155 155 151 150 153 147 141 139 134 130 127 125 124 126 127 123 123 123 124 126 128 122 117 113 105 108 99 104 106 104
154 161 284 236 74 72 310 347 298 120 142 139 108 91 83 101 144 144 152 155 156 154 154 152 149 144 139 134 128 127 126 125 120 119 120 119 117 122 123 125 119 110 106 102 99 99 106 111 111
158 198 257 250 268 177 224 304 162 131 123 139 126 76 79 75 141 153 151 156 156 153 154 153 151 146 140 135 131 128 123 125 122 113 117 123 122 122 121 118 116 110 104 101 105 109 116 115 112
170 225 309 255 235 213 112 315 177 151 76 103 105 100 86 135 146 149 154 155 156 154 155 155 154 149 144 137 135 129 124 128 124 120 120 119 118 119 116 114 111 106 101 97 101 114 124 125 118
132 92 76 207 257 283 307 317 175 178 116 122 99 103 114 160 152 152 156 155 157 155 156 157 157 154 148 140 139 136 130 132 130 127 122 121 117 116 113 108 105 106 102 91 91 118 129 140 123
153 103 218 254 262 14 290 351 149 151 149 120 136 97 131 155 154 156 155 157 158 159 159 159 160 158 150 145 144 139 135 135 134 131 129 126 123 118 114 109 106 108 99 84 79 101 122 139 128
214 132 256 227 68 47 258 144 115 152 75 135 140 157 160 156 156 157 156 161 161 162 161 161 162 160 153 151 144 138 141 140 137 133 132 130 127 125 122 116 111 110 99 91 88 99 116 130 129
206 26 254 233 171 150 277 183 170 119 140 164 183 159 156 153 157 155 160 164 166 168 167 168 164 161 160 155 145 143 150 145 139 132 130 131 132 134 132 125 116 112 112 101 100 101 111 126 128
194 195 217 234 104 186 147 152 138 136 150 69 114 146 152 157 161 162 167 167 172 173 172 171 166 166 166 157 150 154 159 149 141 134 137 137 137 137 139 134 126 124 120 117 113 113 117 125 122
193 228 190 257 138 164 193 201 147 150 169 185 148 151 159 163 167 169 172 174 175 176 176 175 171 172 169 159 157 158 159 151 154 138 135 139 146 140 142 134 127 121 115 117 120 125 115 125 141
254 242 250 239 254 192 165 169 154 172 211 195 176 162 163 167 172 175 175 178 177 180 181 177 176 177 173 165 164 164 159 151 148 151 151 149 147 138 138 131 121 116 126 128 138 134 132 147 168
232 257 265 262 278 166 181 160 190 194 184 168 159 162 167 167 174 180 182 182 182 184 184 183 181 181 177 171 169 167 157 151 156 136 120 128 131 143 162 159 145 124 105 132 142 137 130 113 143
207 239 262 274 275 171 153 142 155 156 159 155 163 169 172 172 176 180 187 186 188 186 187 186 187 184 179 172 170 161 163 155 163 152 138 134 152 135 122 136 158 141 145 134 167 154 144 121 129
252 288 299 254 258 177 151 182 170 151 160 159 167 172 175 180 179 187 190 190 189 189 188 192 192 186 177 172 174 178 177 177 184 148 154 157 139 146 139 161 147 127 127 148 158 145 151 146 153
159 193 268 258 207 222 148 235 164 160 157 161 169 175 182 186 185 190 192 196 193 192 193 194 195 191 185 182 181 184 196 196 188 189 191 186 206 203 207 183 175 148 144 142 143 124 69 164 158
307 191 189 275 202 170 175 200 183 169 164 169 176 183 188 188 194 195 197 198 197 195 195 198 195 192 193 188 188 199 207 198 190 189 194 197 221 228 217 174 186 178 171 176 170 142 143 144 154
202 189 197 191 215 169 172 252 174 181 172 178 183 190 191 195 199 198 200 199 201 201 199 197 197 197 196 196 198 203 209 205 201 205 199 202 221 239 210 210 193 199 192 198 169 181 215 169 160
182 213 196 213 191 145 197 199 189 183 186 180 192 194 199 201 199 197 206 206 205 206 203 200 201 202 201 200 201 206 212 209 208 207 204 217 229 231 240 226 222 206 209 190 201 208 201 177 171
231 250 258 293 183 187 196 213 196 188 200 187 193 198 203 204 202 201 207 207 208 208 209 209 208 211 209 208 208 211 212 217 221 222 213 216 222 228 238 239 231 239 212 212 232 210 185 192 182
211 222 236 232 111 203 173 234 173 198 208 201 208 207 207 205 204 203 206 207 207 211 209 213 216 219 217 215 215 217 219 223 224 223 221 218 220 224 230 238 233 234 212 208 216 196 185 195 179
214 210 222 245 147 199 167 226 209 204 214 211 211 210 208 211 213 210 209 208 207 214 214 215 216 222 220 218 219 222 226 224 225 227 227 225 225 226 224 237 240 232 228 216 207 211 203 203 188
227 165 200 234 197 152 234 123 253 197 221 222 218 212 209 211 212 212 211 212 204 208 214 215 219 221 220 219 221 223 227 229 228 229 230 228 227 232 232 231 244 241 231 216 208 217 208 200 205
170 188 194 255 146 245 215 209 255 193 220 224 226 221 212 209 212 217 218 213 209 207 214 216 218 221 222 221 222 224 228 231 230 230 229 226 228 231 233 230 239 241 230 222 217 209 210 211 213
199 141 226 245 208 235 211 196 218 210 214 217 219 216 215 211 210 212 210 210 212 209 212 214 216 221 224 223 223 226 230 234 235 231 225 222 220 222 224 224 231 235 232 229 226 220 222 219 228
208 184 168 194 189 218 202 213 233 205 218 221 226 215 211 218 212 211 209 208 211 210 211 215 217 220 224 226 226 229 231 234 235 232 229 224 221 222 219 221 228 235 239 234 228 229 230 229 229
197 208 195 103 350 176 222 249 297 205 237 222 228 204 204 216 215 219 214 209 210 211 213 218 219 220 224 226 227 229 232 234 234 231 230 227 225 223 222 225 232 238 241 240 233 236 236 230 234
209 159 189 218 191 225 269 213 205 190 229 213 220 208 206 207 215 215 221 215 212 214 217 220 222 222 224 226 227 229 233 235 235 233 230 228 228 228 229 228 230 236 239 235 235 238 239 239 238
211 203 200 159 193 224 235 248 205 195 207 200 219 211 210 206 212 214 214 216 212 215 215 218 221 222 223 225 227 229 233 236 236 236 232 231 230 229 228 227 225 228 234 238 237 241 245 246 247
298 216 170 203 215 245 198 244 250 212 197 195 213 215 213 211 212 213 212 212 205 213 215 217 222 223 223 227 227 230 234 236 237 237 236 233 233 231 229 229 228 225 227 236 240 245 247 248 250
Wind_Speed_850mb
22 20 18 8 5 4 6 6 3 7 8 17 46 14 13 11 5 5 54 65 63 63 61 56 51 48 45 40 38 37 37 35 34 32 32 32 30 28 28 27 25 25 29 24 21 21 23 26 26
25 21 14 6 2 3 6 2 5 10 19 43 23 36 11 6 10 45 74 68 63 64 62 56 49 46 43 40 38 37 35 34 32 32 32 30 30 30 30 29 26 26 26 26 26 24 28 30 31
22 7 5 3 3 2 6 8 10 8 52 31 13 23 9 8 25 84 74 72 66 64 61 58 50 44 41 38 36 33 34 34 31 34 30 30 31 29 28 28 29 30 29 28 28 26 31 30 29
19 9 6 2 1 4 4 12 10 29 28 14 34 16 11 6 76 51 77 70 66 64 60 57 48 41 39 37 34 32 33 32 34 31 29 30 30 29 28 29 29 29 28 24 23 25 28 30 31
19 4 1 3 5 5 3 6 6 19 12 12 5 10 15 58 43 77 71 69 68 65 60 54 46 39 37 36 33 32 31 33 33 33 28 30 32 31 31 32 32 30 28 26 25 24 24 26 28
5 3 2 3 6 5 6 6 22 3 10 18 22 29 14 25 69 70 69 69 66 63 59 52 44 39 36 35 32 29 31 31 31 31 30 28 31 33 35 35 34 32 29 26 22 20 23 22 23
5 5 4 6 6 8 5 5 10 10 16 13 47 11 29 60 73 68 68 66 64 59 57 51 46 40 36 34 32 30 29 30 30 30 30 29 32 34 34 33 32 29 27 26 27 22 23 24 22
5 6 5 7 3 3 7 4 13 14 5 41 38 15 35 84 71 65 63 63 59 56 56 52 47 41 37 34 31 30 28 29 30 30 29 29 31 32 32 31 30 27 29 27 29 28 23 25 21
7 2 6 6 9 5 11 7 15 10 35 7 20 29 81 83 72 68 62 61 57 54 53 51 46 41 37 34 31 31 28 29 32 30 28 27 27 30 30 28 28 26 25 27 28 28 27 23 19
8 5 15 7 8 4 9 9 24 13 22 13 29 62 96 77 75 78 70 66 62 58 55 50 46 41 38 34 32 32 32 32 33 28 26 25 23 24 25 25 26 24 23 24 24 23 23 21 13
13 11 10 5 17 27 7 8 16 33 5 23 76 99 94 80 77 78 72 69 68 61 55 51 46 41 37 34 33 32 31 32 25 28 25 21 16 20 22 23 24 25 23 24 21 17 18 15 13
8 26 36 6 3 19 14 20 14 36 14 41 66 119 109 93 85 82 75 70 68 63 56 51 46 42 38 35 33 32 29 26 25 22 15 14 13 16 21 23 23 19 18 17 21 18 14 9 16
27 24 27 30 21 17 39 17 12 37 16 40 82 87 87 89 83 80 73 66 65 65 58 53 47 42 40 37 34 33 27 28 30 22 24 15 16 13 14 19 14 17 16 22 22 17 12 10 10
14 38 47 33 37 22 23 8 24 21 50 69 88 85 77 80 87 77 75 72 71 66 59 53 50 44 43 40 39 34 30 29 24 18 16 12 11 12 17 18 16 13 18 11 13 11 12 14 21
34 21 17 18 24 16 24 7 9 51 65 74 80 84 71 75 80 87 81 78 73 68 59 56 53 49 48 40 41 37 29 25 24 17 16 13 8 15 11 13 17 15 12 7 12 12 5 9 12
8 9 7 6 15 13 29 13 23 59 66 66 71 77 77 80 86 85 78 74 73 68 64 56 58 54 54 43 43 36 27 27 27 25 17 12 4 9 4 14 18 12 11 7 7 6 1 12 12
5 8 13 14 22 7 13 6 28 56 54 58 69 71 71 73 80 85 84 78 76 71 65 61 64 59 59 48 48 38 31 30 32 26 22 12 5 4 6 9 16 10 13 13 8 7 5 13 20
12 9 9 11 11 13 13 12 33 61 61 61 66 70 74 71 78 84 82 83 77 72 67 64 68 63 56 53 49 41 33 35 36 30 24 17 10 4 11 11 10 15 13 11 12 9 6 11 18
9 8 11 7 16 13 29 14 37 55 50 57 63 68 75 80 83 80 83 77 81 78 75 72 71 68 63 59 57 56 49 42 38 33 28 22 19 13 9 13 11 15 9 16 13 11 12 11 17
14 10 12 10 12 19 23 29 31 37 54 67 65 65 75 78 81 87 88 86 84 86 85 79 78 74 72 66 62 59 59 56 47 40 34 31 26 21 15 15 18 15 15 12 11 12 21 16 13
28 32 20 16 5 20 15 12 16 27 33 45 61 73 70 82 85 93 93 102 94 93 90 88 86 80 83 76 70 69 61 63 60 56 46 37 31 27 21 15 20 19 21 15 14 13 19 15 17
28 31 27 27 10 8 16 10 17 26 36 34 62 71 70 77 77 80 88 98 102 105 99 93 86 85 86 86 76 72 67 75 74 66 55 45 37 32 27 22 20 25 25 20 14 18 20 17 25
27 15 20 20 7 10 13 8 14 34 37 44 53 70 75 82 84 93 98 106 100 105 106 102 96 89 86 93 84 73 69 68 77 72 61 54 45 39 33 27 23 27 29 24 18 19 26 23 27
10 10 9 2 7 19 26 20 11 25 51 49 55 75 73 77 84 94 102 92 102 102 112 110 104 99 90 95 90 81 71 65 66 68 67 57 53 52 43 33 30 31 28 26 25 21 24 28 26
24 17 6 8 12 23 14 20 26 35 49 57 61 87 89 87 82 86 93 103 108 108 114 115 111 105 97 100 97 88 76 67 63 61 62 60 54 51 46 40 36 33 31 27 25 27 25 28 26
23 23 12 17 9 12 14 15 13 30 60 83 89 88 63 68 76 84 102 106 107 108 115 120 116 109 105 102 102 93 82 71 65 63 62 60 59 50 41 41 39 38 32 30 31 32 31 31 30
21 34 23 9 6 5 12 10 11 14 28 30 57 50 72 83 82 94 89 93 104 106 114 121 119 110 107 105 107 98 87 78 71 68 60 62 59 50 45 43 42 40 38 34 34 38 31 35 34
39 18 15 11 16 15 9 11 15 21 30 26 31 55 68 84 84 80 90 94 97 109 113 116 118 109 107 107 110 101 87 78 74 72 67 63 59 55 53 50 44 42 39 34 38 36 36 35 38
23 22 10 12 9 22 3 15 15 23 31 27 32 62 77 80 96 99 94 96 97 103 109 116 117 114 112 108 109 103 91 82 77 76 72 66 61 60 57 51 48 45 43 43 42 43 43 43 39
22 22 15 22 24 5 7 29 9 20 25 26 41 60 73 90 98 97 99 102 99 102 105 114 114 114 112 107 108 103 93 87 81 78 74 70 68 64 60 59 55 53 50 43 44 51 52 53 51
Wind_Direction_850mb
155 163 163 187 226 231 250 151 325 121 115 140 139 154 155 63 143 181 146 155 155 150 147 148 144 140 137 134 128 125 124 125 126 123 128 128 129 131 130 128 121 120 120 110 104 100 96 102 108
160 160 179 244 263 314 332 333 309 160 144 142 104 112 81 83 112 138 147 155 155 151 150 153 147 141 139 134 130 127 125 124 126 127 123 123 123 124 126 128 122 117 113 105 108 99 104 106 104
154 161 284 236 74 72 310 347 298 120 142 139 108 91 83 101 144 144 152 155 156 154 154 152 149 144 139 134 128 127 126 125 120 119 120 119 117 122 123 125 119 110 106 102 99 99 106 111 111
158 198 257 250 268 177 224 304 162 131 123 139 126 76 79 75 141 153 151 156 156 153 154 153 151 146 140 135 131 128 123 125 122 113 117 123 122 122 121 118 116 110 104 101 105 109 116 115 112
170 225 309 255 235 213 112 315 177 151 76 103 105 100 86 135 146 149 154 155 156 154 155 155 154 149 144 137 135 129 124 128 124 120 120 119 118 119 116 114 111 106 101 97 101 114 124 125 118
132 92 76 207 257 283 307 317 175 178 116 122 99 103 114 160 152 152 156 155 157 155 156 157 157 154 148 140 139 136 130 132 130 127 122 121 117 116 113 108 105 106 102 91 91 118 129 140 123
153 103 218 254 262 14 290 351 149 151 149 120 136 97 131 155 154 156 155 157 158 159 159 159 160 158 150 145 144 139 135 135 134 131 129 126 123 118 114 109 106 108 99 84 79 101 122 139 128
214 132 256 227 68 47 258 144 115 152 75 135 140 157 160 156 156 157 156 161 161 162 161 161 162 160 153 151 144 138 141 140 137 133 132 130 127 125 122 116 111 110 99 91 88 99 116 130 129
206 26 254 233 171 150 277 183 170 119 140 164 183 159 156 153 157 155 160 164 166 168 167 168 164 161 160 155 145 143 150 145 139 132 130 131 132 134 132 125 116 112 112 101 100 101 111 126 128
194 195 217 234 104 186 147 152 138 136 150 69 114 146 152 157 161 162 167 167 172 173 172 171 166 166 166 157 150 154 159 149 141 134 137 137 137 137 139 134 126 124 120 117 113 113 117 125 122
193 228 190 257 138 164 193 201 147 150 169 185 148 151 159 163 167 169 172 174 175 176 176 175 171 172 169 159 157 158 159 151 154 138 135 139 146 140 142 134 127 121 115 117 120 125 115 125 141
254 242 250 239 254 192 165 169 154 172 211 195 176 162 163 167 172 175 175 178 177 180 181 177 176 177 173 165 164 164 159 151 148 151 151 149 147 138 138 131 121 116 126 128 138 134 132 147 168
232 257 265 262 278 166 181 160 190 194 184 168 159 162 167 167 174 180 182 182 182 184 184 183 181 181 177 171 169 167 157 151 156 136 120 128 131 143 162 159 145 124 105 132 142 137 130 113 143
207 239 262 274 275 171 153 142 155 156 159 155 163 169 172 172 176 180 187 186 188 186 187 186 187 184 179 172 170 161 163 155 163 152 138 134 152 135 122 136 158 141 145 134 167 154 144 121 129
252 288 299 254 258 177 151 182 170 151 160 159 167 172 175 180 179 187 190 190 189 189 188 192 192 186 177 172 174 178 177 177 184 148 154 157 139 146 139 161 147 127 127 148 158 145 151 146 153
159 193 268 258 207 222 148 235 164 160 157 161 169 175 182 186 185 190 192 196 193 192 193 194 195 191 185 182 181 184 196 196 188 189 191 186 206 203 207 183 175 148 144 142 143 124 69 164 158
307 191 189 275 202 170 175 200 183 169 164 169 176 183 188 188 194 195 197 198 197 195 195 198 195 192 193 188 188 199 207 198 190 189 194 197 221 228 217 174 186 178 171 176 170 142 143 144 154
202 189 197 191 215 169 172 252 174 181 172 178 183 190 191 195 199 198 200 199 201 201 199 197 197 197 196 196 198 203 209 205 201 205 199 202 221 239 210 210 193 199 192 198 169 181 215 169 160
182 213 196 213 191 145 197 199 189 183 186 180 192 194 199 201 199 197 206 206 205 206 203 200 201 202 201 200 201 206 212 209 208 207 204 217 229 231 240 226 222 206 209 190 201 208 201 177 171
231 250 258 293 183 187 196 213 196 188 200 187 193 198 203 204 202 201 207 207 208 208 209 209 208 211 209 208 208 211 212 217 221 222 213 216 222 228 238 239 231 239 212 212 232 210 185 192 182
211 222 236 232 111 203 173 234 173 198 208 201 208 207 207 205 204 203 206 207 207 211 209 213 216 219 217 215 215 217 219 223 224 223 221 218 220 224 230 238 233 234 212 208 216 196 185 195 179
214 210 222 245 147 199 167 226 209 204 214 211 211 210 208 211 213 210 209 208 207 214 214 215 216 222 220 218 219 222 226 224 225 227 227 225 225 226 224 237 240 232 228 216 207 211 203 203 188
227 165 200 234 197 152 234 123 253 197 221 222 218 212 209 211 212 212 211 212 204 208 214 215 219 221 220 219 221 223 227 229 228 229 230 228 227 232 232 231 244 241 231 216 208 217 208 200 205
170 188 194 255 146 245 215 209 255 193 220 224 226 221 212 209 212 217 218 213 209 207 214 216 218 221 222 221 222 224 228 231 230 230 229 226 228 231 233 230 239 241 230 222 217 209 210 211 213
199 141 226 245 208 235 211 196 218 210 214 217 219 216 215 211 210 212 210 210 212 209 212 214 216 221 224 223 223 226 230 234 235 231 225 222 220 222 224 224 231 235 232 229 226 220 222 219 228
208 184 168 194 189 218 202 213 233 205 218 221 226 215 211 218 212 211 209 208 211 210 211 215 217 220 224 226 226 229 231 234 235 232 229 224 221 222 219 221 228 235 239 234 228 229 230 229 229
197 208 195 103 350 176 222 249 297 205 237 222 228 204 204 216 215 219 214 209 210 211 213 218 219 220 224 226 227 229 232 234 234 231 230 227 225 223 222 225 232 238 241 240 233 236 236 230 234
209 159 189 218 191 225 269 213 205 190 229 213 220 208 206 207 215 215 221 215 212 214 217 220 222 222 224 226 227 229 233 235 235 233 230 228 228 228 229 228 230 236 239 235 235 238 239 239 238
211 203 200 159 193 224 235 248 205 195 207 200 219 211 210 206 212 214 214 216 212 215 215 218 221 222 223 225 227 229 233 236 236 236 232 231 230 229 228 227 225 228 234 238 237 241 245 246 247
298 216 170 203 215 245 198 244 250 212 197 195 213 215 213 211 212 213 212 212 205 213 215 217 222 223 223 227 227 230 234 236 237 237 236 233 233 231 229 229 228 225 227 236 240 245 247 248 250